Location: Unspecified
(35.6961°N, 0.0000°E)
Time: 11:52:31
(UTC+00:00)

Vanguard 3 - Pass Details

Date: 31 May 2019
Orbit: 508 x 3263 km, 33.3° (Epoch: 17 June)

Event Time Altitude Azimuth Distance (km) Brightness Sun altitude
Rises 19:26:23 0° 255° (WSW) 2,724 10.6 -3.8°
Reaches altitude 10° 19:28:18 10° 252° (WSW) 1,947 9.8 -4.1°
Maximum altitude 19:32:34 65° 170° (S) 848 7.1 -4.9°
Drops below altitude 10° 19:39:25 10° 90° (E) 3,076 9.6 -6.0°
Sets 19:43:08 0° 88° (E) 4,490 10.4 -6.7°
